This is the latest recevied weather packets stored in our database for station/object DG9VH-13. If no packets are shown the sender has not sent any weather packets the latest 10 day(s).
| Time | Temp. | Humidity | Pressure | Rain* | Wind** | Luminosity | Snow |
|---|---|---|---|---|---|---|---|
| 1777597204 | 11.67° C | 39% | 1008.1 hPa | - | - | - | - |
| 1777596603 | 12.22° C | 37% | 1008.2 hPa | - | - | - | - |
| 1777596004 | 12.22° C | 36% | 1008.2 hPa | - | - | - | - |
| 1777595403 | 12.78° C | 36% | 1008.2 hPa | - | - | - | - |
| 1777594801 | 12.78° C | 34% | 1008.1 hPa | - | - | - | - |
| 1777594201 | 12.78° C | 34% | 1008 hPa | - | - | - | - |
| 1777593604 | 12.78° C | 34% | 1008.1 hPa | - | - | - | - |
| 1777593001 | 12.78° C | 34% | 1008.2 hPa | - | - | - | - |
| 1777592404 | 12.22° C | 34% | 1008.1 hPa | - | - | - | - |
| 1777591801 | 12.78° C | 34% | 1008 hPa | - | - | - | - |
| 1777591201 | 12.78° C | 34% | 1008 hPa | - | - | - | - |
| 1777590601 | 12.78° C | 34% | 1008 hPa | - | - | - | - |
| 1777590004 | 12.22° C | 34% | 1008 hPa | - | - | - | - |
| 1777589404 | 12.22° C | 34% | 1008.1 hPa | - | - | - | - |
| 1777588804 | 12.78° C | 35% | 1008.2 hPa | - | - | - | - |
| 1777588203 | 12.78° C | 36% | 1008.3 hPa | - | - | - | - |
| 1777587600 | 12.78° C | 39% | 1008.2 hPa | - | - | - | - |
| 1777587001 | 12.78° C | 41% | 1008.4 hPa | - | - | - | - |
| 1777586403 | 12.78° C | 40% | 1008.3 hPa | - | - | - | - |
| 1777585801 | 12.78° C | 39% | 1008.2 hPa | - | - | - | - |
| 1777585204 | 13.33° C | 39% | 1008.2 hPa | - | - | - | - |
| 1777584603 | 13.33° C | 37% | 1008.1 hPa | - | - | - | - |
| 1777584001 | 13.33° C | 37% | 1008 hPa | - | - | - | - |
| 1777583403 | 13.89° C | 37% | 1008.1 hPa | - | - | - | - |
| 1777582804 | 13.89° C | 36% | 1008 hPa | - | - | - | - |
* Rain since midnight (hover to see other rain measurements)
** Current wind speed in m/s (hover to see current wind gust speed)